Back to catalog

CZ-6A DEB

AliveSSO
NORAD 54343·DEBRIS·🇨🇳 China

Launched Nov 11, 2022 from Taiyuan Satellite Launch Center

Loading…

Next Passes (next 24 hours)

TLE

FreshSource: Space-Track

Epoch: Sep 14, 2026, 05:58 UTC

1 54343U 22151CN  26257.24873940  .00000037  00000-0  44416-4 0  9992
2 54343  98.8422 256.9638 0042852  86.0325 274.5743 14.10740432197081

Track CZ-6A DEB in real time with AllMySat

Download on the App Store